{"data":{"norad_id":66382,"epoch":"2026-05-24T14:48:26.201952Z","epoch_age_seconds":111715,"freshness":"FRESH","line1":"1 66382U 25257C   26144.61696993  .00016071  00000+0  55342-3 0  9998","line2":"2 66382  53.1590 224.6819 0001065  80.0451 280.0670 15.30207199 31354","mean_motion":15.30207199,"eccentricity":0.0001065,"inclination_deg":53.159,"raan_deg":224.6819,"arg_perigee_deg":80.0451,"mean_anomaly_deg":280.067,"bstar":0.00055342,"rev_number":3135,"period_min":94.104902979221,"perigee_km":474.46369488103,"apogee_km":475.92345429342,"semimajor_km":6853.3305745872,"source":"CELESTRAK","updated_at":"2026-05-25T13:38:21.200308Z"}}